Regional Weather Roundup
Issued by NWS

Home | Current Version | Previous Version | Text Only | Print | Product List | Glossary Off
Versions: 1 2 3 4 5 6 7 8 9 10 11 12 13 14 15 16 17 18 19 20 21 22 23 24 25 26 27 28 29 30 31 32 33 34 35 36 37 38 39 40 41 42 43 44 45 46 47 48 49 50

114
ASUS43 KLOT 042303
RWRIL

ILLINOIS REGIONAL WEATHER ROUNDUP
NATIONAL WEATHER SERVICE CHICAGO/ROMEOVILLE IL
500 PM CST SUN DEC 04 2016

NOTE: "FAIR" INDICATES FEW OR NO CLOUDS BELOW 12,000 FEET WITH NO
SIGNIFICANT WEATHER AND/OR OBSTRUCTIONS TO VISIBILITY.

* THESE STATIONS ARE NOT UNDER NWS QUALITY CONTROL. THEY ALSO MAY NOT
  REPORT WEATHER SUCH AS PRECIPITATION OR FOG.

ILZ001-002-007-009-015-016-024-050000-
NORTHWEST ILLINOIS

CITY           SKY/WX    TMP DP  RH WIND       PRES   REMARKS
MOLINE         CLOUDY    34  31  88 CALM      29.91F FOG
STERLING*      FOG       30  28  92 CALM      29.92S VSB 1
$$

ILZ003-004-008-010-011-017-018-050000-
NORTH CENTRAL ILLINOIS

CITY           SKY/WX    TMP DP  RH WIND       PRES   REMARKS
ROCKFORD       LGT SNOW  31  29  92 S3        29.92S VSB 3/4
FREEPORT*      CLOUDY    29  28  96 S3        29.91F FOG
ROCHELLE*      LGT SNOW  30  29  99 CALM      29.91S
$$

ILZ005-006-012>014-019>023-050000-
NORTHEAST ILLINOIS

CITY           SKY/WX    TMP DP  RH WIND       PRES   REMARKS
CHICAGO-OHARE  SNOW      32  32 100 CALM      29.90F VSB 1/2
CHICAGO-MIDWAY LGT SNOW  33  30  88 NW6       29.91R VSB 1   WCI  28
AURORA         SNOW      32  31  96 CALM      29.90F VSB 1/2
LANSING*       LGT SNOW  32  32 100 NW3       29.91R
WAUKEGAN       SNOW      32  32 100 S3        29.89F VSB 1/2
DUPAGE AIRPORT LGT SNOW  31  29  92 CALM      29.89F VSB 1
KANKAKEE*      LGT SNOW  32  32  99 NW3       29.91R
WHEELING       SNOW      32  32 100 CALM      29.92S VSB 1/2
MORRIS*        LGT SNOW  32  31  97 CALM      29.90F
NORTHERLY ISL    N/A     33  32  96 W5          N/A  WCI  29
$$

LMZ740>746-050000-
SOUTHERN LAKE MICHIGAN

STATION/POSITION SKY/WX   TEMP    WIND        PRES    VSBY  WAVE
                          AIR SEA DIR/SP/G                  HT/PER
                          (F)     (DEG/KT/KT) (MB)    (MI)  (FT/S)
SOUTHERN BUOY              36 48  160/ 10/ 14 1012.4F         3/ 4
HARRISON CRIB              34     220/  6/  7   N/A
BURNHAM HARBOR             33     280/  4/  7   N/A
CALUMET HARBOR             33     190/  2/  3 1012.0R
BURNS HARBOR               33      CALM  /  3 1012.5S
$$

ILZ025>027-034>036-040-047-049-050-058-095>099-050000-
WEST-CENTRAL ILLINOIS

CITY           SKY/WX    TMP DP  RH WIND       PRES   REMARKS
QUINCY         CLOUDY    34  33  96 W7        29.94S WCI  28
GALESBURG*     MIX PCPN  32  32 100 CALM      29.92S
MACOMB*        CLOUDY    33  33 100 SW5       29.95S FOG     WCI  28
JACKSONVILLE*  CLOUDY    33  32  98 W8        29.94R FOG     WCI  25
PITTSFIELD*    CLOUDY    35  33  94 W9G16     29.96R WCI  27
$$

ILZ028>032-037-038-041>044-048-051>054-059>061-050000-
CENTRAL ILLINOIS

CITY           SKY/WX    TMP DP  RH WIND       PRES   REMARKS
BLOOMINGTON    LGT SNOW  32  31  96 NW5       29.91R FOG     WCI  27
DECATUR        CLOUDY    33  33 100 W7        29.91S WCI  27
PEORIA         CLOUDY    33  32  96 CALM      29.93R FOG
LACON*         LGT RAIN  31  31 100 CALM      29.92S
LINCOLN*       CLOUDY    33  33 100 CALM      29.92S FOG
SPRINGFIELD    CLOUDY    34  32  92 W6        29.93S WCI  29
TAYLORVILLE    CLOUDY    32  32  99 W6        29.93S WCI  27
$$

ILZ033-039-045-046-055>057-062-063-050000-
EAST-CENTRAL ILLINOIS

CITY           SKY/WX    TMP DP  RH WIND       PRES   REMARKS
CHAMPAIGN      FOG       33  31  92 SW7       29.90S VSB 1/4 WCI  27
RANTOUL*       LGT RAIN  34  34  99 W5        29.89R WCI  30
MATTOON        CLOUDY    36  34  92 W9        29.90R WCI  29
PARIS*         CLOUDY    37  37 100 SW6       29.89F WCI  32
$$

ILZ079-100>102-050000-
SOUTHWEST ILLINOIS

CITY           SKY/WX    TMP DP  RH WIND       PRES   REMARKS
ALTON          CLOUDY    37  36  93 W12       29.95S WCI  30
BELLEVILLE     CLOUDY    40  40  99 W8        29.94F
CAHOKIA*       CLOUDY    41  35  79 W8        29.96S
SPARTA*        CLOUDY    40  36  87 W8        29.97R
$$

ILZ064>066-069>071-074>076-080>082-084>086-088>090-092>094-050000-
SOUTH-CENTRAL ILLINOIS

CITY           SKY/WX    TMP DP  RH WIND       PRES   REMARKS
CARBONDALE     CLOUDY    42  39  89 W8        29.97R
CAIRO*         CLOUDY    42  40  92 W5        29.97S
EFFINGHAM*     CLOUDY    39  38  97 W13G21    29.95R WCI  31
MARION         CLOUDY    43  43 100 SW6       29.97R
CENTRALIA*     CLOUDY    40  38  91 W12       29.95R
SALEM*         CLOUDY    40  37  86 W12G17    29.95R
METROPOLIS*    CLOUDY    44  41  90 W5        29.97S
$$

ILZ067-068-072-073-078-083-087-091-050000-
SOUTHEAST ILLINOIS

CITY           SKY/WX    TMP DP  RH WIND       PRES   REMARKS
LAWRENCEVILLE  CLOUDY    42  41  96 W9        29.93R
FLORA*         CLOUDY    41  38  89 W8        29.94R
FAIRFIELD*     CLOUDY    40  39  97 W3        29.94R
HARRISBURG*    MOCLDY    41  40  95 W8        29.96R
ROBINSON*      CLOUDY    40  37  92 W14       29.92S
CARMI*         CLOUDY    42  40  92 W8        29.94S
$$

ABBREVIATIONS USED IN REMARKS
   TC - TEMPERATURE IN CELSIUS
  WCI - WIND CHILL INDEX
   HX - HEAT INDEX
  VSB - VISIBILITY
$$





USA.gov is the U.S. government's official web portal to all federal, state and local government web resources and services.